DELTA 1 DEB, 7028

Orbit data source: Space-Track

DELTA 1 DEB, 7028 is space debris in SSO originally from a launch on Tue, 06 Nov 1973 UTC launched from the Air Force Western Test Range (AFWTR). Debris objects in space refer to the collection of defunct objects orbiting the Earth. Examples of debris include non-operational satellites, rocket bodies, and fragments generated from explosions, collisions, or faulty payload assembly.

Loading next visibility...
Identifier
7028, 1973-086U
Orbit
SSO
Country
Flag of USUS
Related business
Manufacturer
Unknown
Mission
Spacecraft
Bus & Motor
Unknown
Mass
Unknown
Launch date (UTC)
1973-11-06 (52 years ago)
Launch vehicle
Unknown
Launch site
Air Force Western Test Range (AFWTR)
Object type
Payload
Rocket body
Debris
Shape & HBR
Unknown shape, 0.6 m
Radar Cross Section
Large (>1 m²)

Expand to show TLE details & history
Last TLE update: 9 hours ago

TLE from 9 hours ago
0 DELTA 1 DEB
1  7028U 73086U   25298.00830082 -.00000015  00000-0  28190-3 0  9998
2  7028 102.7022 308.0323 0081589 170.4349 247.1030 12.24545373322562
Epoch: 2025-10-25T00:11Z
TLE epoch observation values (Epoch: 2025-10-25T00:11:57.190Z)
Latitude
54.69745°
Longitude
-107.06911°
Altitude
1,607.276 km
Speed
7.06 km/s
True Right ascension
19h 18m 15s
True Declination
54° 33' 09"
Sunlit
Object was in daylight at epoch
Visualization orbit readout
Latitude
Unknown
Longitude
Unknown
Altitude
Unknown
Speed
Unknown
Apparent Right ascension
Unknown
Apparent Declination
Unknown
Sunlit
N/A
Visualization observer readout
Local Sidereal Time
04:52:49
Azimuth
Unknown
Elevation
Unknown
Doppler factor
Unknown
Orbital elements
Apogee altitude
1,635.294 km
Perigee altitude
1,505.591 km
Semi-major axis
7,948.579 km
Eccentricity
0.00816
Inclination
102.7022°
RAAN
308.0323°
Arg. of periapsis
170.4349°
True anomaly
246.24516°
Mean anomaly
247.103°
Eccentric anomaly
246.67374°
Mean motion
3.06273 °/min
Orbital period
117.54 mins
BSTAR
0.0002819
Loading maneuver chart data...
Computing Atmospheric mass density...
Loading historical data...
Loading historical data...
Loading historical data...
Loading historical data...
Loading historical data...
Loading historical data...
Loading historical data...

Documentation

Showing up to 5 results
|